Location: Bay Shore Mobile Home Park
(38.5762°N, 75.0841°W)
Time: 18:35:13
(UTC+00:00)

NOSS 3 (A) - Pass Details

Date: 15 November 2025
Orbit: 160 x 953 km, 63.3° (Epoch: 23 April)

Event Time Altitude Azimuth Distance (km) Brightness Sun altitude
Rises 22:41:44 0° 222° (SW) 1,722 8.9 -10.9°
Reaches altitude 10° 22:43:42 10° 232° (SW) 855 7.5 -11.3°
Maximum altitude 22:45:25 36° 304° (NW) 307 4.5 -11.6°
Enters shadow 22:46:18 19° 4° (N) 508 5.0 -11.8°
